Weather History for Wolf Creek Pass, CO

Change the Weather History Date:

Tuesday, February 19, 2013

  Actual Average (KALS) Record (KALS)
Temperature  
Mean Temperature 14 °F 24 °F  
Max Temperature 21 °F 41 °F 60 °F (1981)
Min Temperature 8 °F 8 °F -17 °F (1992)
Degree Days  
Heating Degree Days 50 41  
Month to date heating degree days 834  
Since 1 July heating degree days 5981  
Cooling Degree Days 0 0  
Month to date cooling degree days 0  
Year to date cooling degree days 0  
Moisture  
Dew Point -10 °F    
Average Humidity 35    
Maximum Humidity 63    
Minimum Humidity 11    
Precipitation  
Precipitation 0.00 in 0.01 in 0.36 in (2004)
Month to date precipitation 0.17  
Year to date precipitation 0.43  
Snow  
Snow 0.00 in 0.10 in 4.50 in (2004)
Month to date snowfall 2.6  
Since 1 July snowfall 16.9  
Snow Depth -    
Sea Level Pressure  
Sea Level Pressure 29.92 in    
Wind  
Wind Speed 18 mph (SW)    
Max Wind Speed 28 mph    
Max Gust Speed 39 mph    
Visibility 10 miles    
Events      
T = Trace of Precipitation, MM = Missing Value Source: NWS Daily Summary

Daily Weather History Graph

Daily Weather History Graph

Search for Another Location

Airport:

Trip Planner

Search our weather history database for the weather conditions in past years. The results will help you decide how hot, cold, wet, or windy it might be!

Date:

Astronomy

Feb. 19, 2013 Rise Set
Actual Time 6:51 AM MST 5:51 PM MST
Civil Twilight 6:24 AM MST 6:17 PM MST
Nautical Twilight 5:54 AM MST 6:48 PM MST
Astronomical Twilight 5:23 AM MST 7:18 PM MST
Moon 12:28 PM MST (2/19) 2:21 AM MST (2/19)
Length of Visible Light 11h 53m
Length of Day
11h 00m
Waxing Gibbous, 68% of the Moon is Illuminated
Feb 19
Waxing Gibbous
Feb 25
Full
Mar 4
Last Quarter
Mar 11
New
Mar 19
First Quarter

Hourly Weather History & Observations

Time (MST) Temp. Windchill Dew Point Humidity Pressure Visibility Wind Dir Wind Speed Gust Speed Precip Events Conditions
12:12 AM 10.4 °F -7.7 °F -4.0 °F 52% 30.04 in 10.0 mi SW 18.4 mph - N/A   Clear
12:32 AM 8.6 °F -8.9 °F -2.2 °F 62% 30.04 in 10.0 mi SW 16.1 mph - N/A   Clear
12:51 AM 8.6 °F -10.0 °F -4.0 °F 57% 30.04 in 10.0 mi SW 18.4 mph - N/A   Scattered Clouds
1:10 AM 10.4 °F -7.7 °F -4.0 °F 52% 30.04 in 10.0 mi SW 18.4 mph - N/A   Clear
1:32 AM 10.4 °F -7.2 °F -4.0 °F 52% 30.04 in 10.0 mi SW 17.3 mph - N/A   Clear
1:52 AM 10.4 °F -7.7 °F -4.0 °F 52% 30.04 in 10.0 mi SW 18.4 mph - N/A   Clear
2:12 AM 12.2 °F -4.8 °F -16.6 °F 27% 30.04 in 10.0 mi SW 17.3 mph 25.3 mph N/A   Scattered Clouds
2:31 AM 12.2 °F -5.3 °F -22.0 °F 20% 30.03 in 10.0 mi WSW 18.4 mph - N/A   Clear
2:52 AM 14.0 °F -1.4 °F -31.0 °F 12% 30.02 in 10.0 mi SW 15.0 mph 20.7 mph N/A   Clear
3:09 AM 12.2 °F -4.3 °F -20.2 °F 22% 30.02 in 10.0 mi SSW 16.1 mph - N/A   Clear
3:32 AM 12.2 °F -5.3 °F -23.8 °F 19% 30.01 in 10.0 mi SW 18.4 mph - N/A   Clear
3:51 AM 12.2 °F -5.3 °F -23.8 °F 19% 30.01 in 10.0 mi SW 18.4 mph - N/A   Clear
4:12 AM 12.2 °F -5.3 °F -23.8 °F 19% 30.00 in 10.0 mi SW 18.4 mph - N/A   Clear
4:31 AM 12.2 °F -6.3 °F -25.6 °F 17% 30.00 in 10.0 mi SW 20.7 mph - N/A   Clear
4:50 AM 10.4 °F -8.2 °F -25.6 °F 18% 30.00 in 10.0 mi SW 19.6 mph 25.3 mph N/A   Clear
5:11 AM 10.4 °F -8.2 °F -25.6 °F 18% 30.00 in 10.0 mi SW 19.6 mph 25.3 mph N/A   Clear
5:32 AM 10.4 °F -7.7 °F -27.4 °F 17% 30.00 in 10.0 mi SW 18.4 mph 23.0 mph N/A   Clear
5:51 AM 10.4 °F -7.2 °F -31.0 °F 14% 30.00 in 10.0 mi SW 17.3 mph - N/A   Clear
6:11 AM 10.4 °F -7.2 °F -31.0 °F 14% 30.00 in 10.0 mi SW 17.3 mph 23.0 mph N/A   Scattered Clouds
6:32 AM 10.4 °F -7.7 °F -32.8 °F 13% 30.00 in 10.0 mi SW 18.4 mph 25.3 mph N/A   Scattered Clouds
6:52 AM 10.4 °F -8.2 °F -32.8 °F 13% 29.99 in 10.0 mi SW 19.6 mph 24.2 mph N/A   Scattered Clouds
7:11 AM 10.4 °F -8.6 °F -32.8 °F 13% 29.99 in 10.0 mi SW 20.7 mph 27.6 mph N/A   Clear
7:32 AM 10.4 °F -8.6 °F -32.8 °F 13% 29.99 in 10.0 mi SW 20.7 mph 26.5 mph N/A   Clear
7:52 AM 12.2 °F -7.1 °F -32.8 °F 12% 29.99 in 10.0 mi SW 23.0 mph 27.6 mph N/A   Clear
8:12 AM 12.2 °F -5.8 °F -32.8 °F 12% 29.99 in 10.0 mi SW 19.6 mph 26.5 mph N/A   Clear
8:51 AM 15.8 °F -0.6 °F -31.0 °F 11% 30.00 in 10.0 mi SW 18.4 mph 24.2 mph N/A   Clear
9:11 AM 17.6 °F 0.5 °F -29.2 °F 11% 30.00 in 10.0 mi SW 21.9 mph 26.5 mph N/A   Clear
9:32 AM 17.6 °F 0.1 °F -25.6 °F 13% 29.99 in 10.0 mi SW 23.0 mph 28.8 mph N/A   Clear
9:52 AM 19.4 °F 4.1 °F -16.6 °F 20% 29.99 in 10.0 mi SW 18.4 mph 34.5 mph N/A   Clear
10:12 AM 19.4 °F 1.1 °F -14.8 °F 21% 29.98 in 10.0 mi SW 27.6 mph 33.4 mph N/A   Clear
10:32 AM 19.4 °F 2.5 °F -13.0 °F 23% 29.98 in 10.0 mi SW 23.0 mph 32.2 mph N/A   Clear
11:11 AM 21.2 °F 6.4 °F -7.6 °F 28% 29.97 in 10.0 mi SW 18.4 mph 35.7 mph N/A   Scattered Clouds
11:32 AM 19.4 °F 2.1 °F -4.0 °F 36% 29.96 in 10.0 mi SW 24.2 mph 36.8 mph N/A   Scattered Clouds
11:50 AM 19.4 °F 2.1 °F -0.4 °F 42% 29.95 in 10.0 mi SW 24.2 mph 35.7 mph N/A   Clear
12:12 PM 21.2 °F 5.2 °F 1.4 °F 42% 29.94 in 10.0 mi SSW 21.9 mph 35.7 mph N/A   Scattered Clouds
12:32 PM 21.2 °F 6.0 °F -0.4 °F 39% 29.93 in 10.0 mi SSW 19.6 mph 32.2 mph N/A   Scattered Clouds
12:52 PM 21.2 °F 5.6 °F -0.4 °F 39% 29.91 in 10.0 mi SW 20.7 mph 36.8 mph N/A   Scattered Clouds
1:10 PM 21.2 °F 5.6 °F -0.4 °F 39% 29.90 in 10.0 mi SW 20.7 mph 39.1 mph N/A   Scattered Clouds
1:51 PM 21.2 °F 5.2 °F -0.4 °F 39% 29.88 in 10.0 mi SW 21.9 mph 39.1 mph N/A   Clear
2:12 PM 21.2 °F 5.6 °F 1.4 °F 42% 29.87 in 10.0 mi SSW 20.7 mph 33.4 mph N/A   Mostly Cloudy
2:18 PM 21.2 °F 6.0 °F 1.4 °F 42% 29.87 in 10.0 mi SW 19.6 mph 29.9 mph N/A   Overcast
2:52 PM 21.2 °F 6.8 °F 1.4 °F 42% 29.86 in 10.0 mi SSW 17.3 mph 31.1 mph N/A   Overcast
3:11 PM 21.2 °F 5.6 °F 1.4 °F 42% 29.86 in 10.0 mi SW 20.7 mph 27.6 mph N/A   Overcast
3:30 PM 21.2 °F 7.8 °F 1.4 °F 42% 29.86 in 10.0 mi SSW 15.0 mph 26.5 mph N/A   Overcast
3:52 PM 21.2 °F 7.3 °F 1.4 °F 42% 29.86 in 10.0 mi SSW 16.1 mph 25.3 mph N/A   Overcast
4:12 PM 19.4 °F 4.1 °F 1.4 °F 46% 29.85 in 10.0 mi SSW 18.4 mph 27.6 mph N/A   Overcast
4:32 PM 19.4 °F 5.0 °F 1.4 °F 46% 29.85 in 10.0 mi SW 16.1 mph 26.5 mph N/A   Overcast
5:52 PM 17.6 °F 3.2 °F 1.4 °F 49% 29.83 in 10.0 mi SSW 15.0 mph 25.3 mph N/A   Overcast
6:12 PM 17.6 °F 4.3 °F 1.4 °F 49% 29.83 in 10.0 mi SSW 12.7 mph 27.6 mph N/A   Overcast
6:52 PM 14.0 °F 0.5 °F 1.4 °F 57% 29.82 in 10.0 mi SSW 11.5 mph 16.1 mph N/A   Scattered Clouds
7:12 PM 15.8 °F 2.1 °F 1.4 °F 53% 29.81 in 10.0 mi SW 12.7 mph 21.9 mph N/A   Scattered Clouds
7:32 PM 15.8 °F 2.1 °F 1.4 °F 53% 29.81 in 10.0 mi SSW 12.7 mph 19.6 mph N/A   Scattered Clouds
7:48 PM 15.8 °F 2.1 °F 1.4 °F 53% 29.81 in 10.0 mi SSW 12.7 mph 27.6 mph N/A   Scattered Clouds
8:12 PM 15.8 °F 2.7 °F -0.4 °F 49% 29.80 in 10.0 mi SW 11.5 mph 20.7 mph N/A   Clear
8:32 PM 14.0 °F 0.5 °F -0.4 °F 53% 29.80 in 10.0 mi SSW 11.5 mph 18.4 mph N/A   Clear
8:52 PM 15.8 °F 3.4 °F -0.4 °F 49% 29.79 in 10.0 mi SSW 10.4 mph 24.2 mph N/A   Clear
9:12 PM 15.8 °F 1.4 °F -0.4 °F 49% 29.79 in 10.0 mi SSW 13.8 mph 24.2 mph N/A   Clear
9:30 PM 17.6 °F 4.3 °F -0.4 °F 45% 29.79 in 10.0 mi SW 12.7 mph 29.9 mph N/A   Scattered Clouds
9:52 PM 17.6 °F 3.7 °F -0.4 °F 45% 29.78 in 10.0 mi SSW 13.8 mph 24.2 mph N/A   Overcast
10:12 PM 17.6 °F 4.3 °F -0.4 °F 45% 29.78 in 10.0 mi SSW 12.7 mph 23.0 mph N/A   Overcast
10:32 PM 17.6 °F 4.3 °F 1.4 °F 49% 29.77 in 10.0 mi SW 12.7 mph 27.6 mph N/A   Overcast
10:52 PM 17.6 °F 0.9 °F 3.2 °F 53% 29.76 in 10.0 mi SW 20.7 mph 31.1 mph N/A   Overcast
11:32 PM 17.6 °F 2.7 °F 5.0 °F 58% 29.75 in 10.0 mi SSW 16.1 mph 24.2 mph N/A   Overcast
11:51 PM 17.6 °F 1.7 °F 6.8 °F 63% 29.73 in 10.0 mi SW 18.4 mph 26.5 mph N/A   Overcast